Goshen, IN

5:29 AM EDT on April 26, 2018 (GMT -0400)
Goshen Municipal

Weather History for KGSH - February, 2014

Change the Weather History Date:

Friday, February 21, 2014

  Actual Average Record
Temperature  
Mean Temperature 34 °F -  
Max Temperature 37 °F 39 °F 66 °F (1983)
Min Temperature 32 °F 22 °F -9 °F (1978)
Degree Days  
Heating Degree Days 30    
Moisture  
Dew Point 26 °F    
Average Humidity 70    
Maximum Humidity 85    
Minimum Humidity 54    
Precipitation  
Precipitation 0.00 in - - ()
Sea Level Pressure  
Sea Level Pressure 29.63 in    
Wind  
Wind Speed 23 mph (SW)    
Max Wind Speed 36 mph    
Max Gust Speed 47 mph    
Visibility 9 miles    
Events Snow    
Averages and records for this station are not official NWS values.
T = Trace of Precipitation, MM = Missing Value Source: NWS Daily Summary

Daily Weather History Graph

Daily Weather History Graph

Search for Another Location

Airport or City:

Astronomy

Feb. 21, 2014 Rise Set
Actual Time 7:29 AM EST 6:24 PM EST
Civil Twilight 7:01 AM EST 6:52 PM EST
Nautical Twilight 6:29 AM EST 7:24 PM EST
Astronomical Twilight 5:57 AM EST 7:56 PM EST
Moon 12:21 AM EST (2/21) 10:48 AM EST (2/21)
Length of Visible Light 11h 50m
Length of Day
10h 54m
Waning Gibbous, 61% of the Moon is Illuminated
Feb 21
Waning Gibbous
Feb 22
Last Quarter
Mar 1
New
Mar 8
First Quarter
Mar 16
Full

Hourly Weather History & Observations

Time (EST) Temp. Windchill Dew Point Humidity Pressure Visibility Wind Dir Wind Speed Gust Speed Precip Events Conditions
12:53 AM 37.0 °F 26.4 °F 30.0 °F 76% 29.49 in 10.0 mi WSW 20.7 mph 28.8 mph N/A   Overcast
1:53 AM 37.0 °F 26.2 °F 28.9 °F 73% 29.49 in 10.0 mi SW 21.9 mph 28.8 mph N/A   Overcast
2:48 AM 37.4 °F 26.6 °F 28.4 °F 70% 29.49 in 10.0 mi SW 21.9 mph - N/A   Overcast
2:53 AM 37.0 °F 25.6 °F 28.9 °F 73% 29.50 in 10.0 mi SW 24.2 mph - N/A   Overcast
3:20 AM 37.0 °F 25.4 °F 28.9 °F 73% 29.49 in 10.0 mi SW 25.3 mph 34.5 mph N/A   Mostly Cloudy
3:53 AM 36.0 °F 24.2 °F 28.9 °F 76% 29.52 in 10.0 mi SW 24.2 mph 33.4 mph N/A   Overcast
4:33 AM 36.0 °F 23.7 °F 28.9 °F 76% 29.49 in 10.0 mi SW 26.5 mph 39.1 mph N/A   Overcast
4:53 AM 36.0 °F 24.4 °F 28.0 °F 73% 29.52 in 10.0 mi SW 23.0 mph 36.8 mph N/A   Overcast
5:53 AM 36.0 °F 24.4 °F 28.0 °F 73% 29.53 in 10.0 mi SW 23.0 mph 33.4 mph N/A   Overcast
6:43 AM 36.0 °F 24.4 °F 28.0 °F 73% 29.52 in 10.0 mi SW 23.0 mph 32.2 mph N/A   Mostly Cloudy
6:53 AM 36.0 °F 24.2 °F 28.0 °F 73% 29.54 in 10.0 mi SW 24.2 mph 31.1 mph N/A   Mostly Cloudy
7:45 AM 35.1 °F 23.0 °F 28.9 °F 78% 29.54 in 2.0 mi SW 24.2 mph 38.0 mph 0.00 in Snow Light Snow
7:53 AM 35.1 °F 24.1 °F 28.9 °F 78% 29.56 in 2.5 mi SW 19.6 mph 32.2 mph 0.00 in Snow Light Snow
8:03 AM 34.0 °F 21.5 °F 28.9 °F 82% 29.54 in 1.5 mi WSW 24.2 mph 33.4 mph 0.00 in Snow Light Snow
8:35 AM 33.1 °F 20.6 °F 28.9 °F 85% 29.56 in 3.0 mi WSW 23.0 mph 31.1 mph 0.00 in Snow Light Snow
8:53 AM 33.1 °F 20.3 °F 28.0 °F 82% 29.58 in 1.8 mi SW 24.2 mph 36.8 mph 0.00 in Snow Light Snow
9:10 AM 33.1 °F 20.6 °F 28.0 °F 82% 29.57 in 3.0 mi SW 23.0 mph 38.0 mph 0.00 in Snow Light Snow
9:53 AM 32.0 °F 16.5 °F 25.0 °F 75% 29.60 in 10.0 mi WSW 35.7 mph 44.9 mph 0.00 in   Overcast
10:53 AM 32.0 °F 18.6 °F 25.0 °F 75% 29.62 in 10.0 mi WSW 25.3 mph 38.0 mph N/A   Overcast
11:53 AM 33.1 °F 19.6 °F 21.9 °F 64% 29.64 in 10.0 mi WSW 27.6 mph 39.1 mph N/A   Overcast
12:09 PM 33.1 °F 20.9 °F 23.0 °F 66% 29.62 in 10.0 mi WSW 21.9 mph 38.0 mph N/A   Overcast
12:19 PM 33.1 °F 20.6 °F 24.1 °F 70% 29.62 in 10.0 mi SW 23.0 mph 35.7 mph N/A   Overcast
12:53 PM 33.1 °F 18.9 °F 21.9 °F 64% 29.65 in 10.0 mi WSW 31.1 mph 42.6 mph N/A   Overcast
1:53 PM 33.1 °F 19.6 °F 21.9 °F 64% 29.68 in 10.0 mi SW 27.6 mph 47.2 mph N/A   Mostly Cloudy
2:53 PM 33.1 °F 19.6 °F 21.9 °F 64% 29.70 in 10.0 mi SW 27.6 mph 43.7 mph N/A   Partly Cloudy
3:53 PM 34.0 °F 21.0 °F 21.0 °F 59% 29.72 in 10.0 mi SW 26.5 mph 36.8 mph N/A   Clear
4:53 PM 34.0 °F 21.3 °F 19.0 °F 54% 29.75 in 10.0 mi SW 25.3 mph 36.8 mph N/A   Clear
5:53 PM 33.1 °F 22.2 °F 18.0 °F 54% 29.78 in 10.0 mi SW 17.3 mph 24.2 mph N/A   Clear
6:53 PM 33.1 °F 21.5 °F 19.0 °F 56% 29.80 in 10.0 mi SW 19.6 mph - N/A   Clear
7:53 PM 34.0 °F 22.4 °F 21.0 °F 59% 29.81 in 10.0 mi SW 20.7 mph - N/A   Clear
8:53 PM 34.0 °F 23.4 °F 23.0 °F 64% 29.83 in 10.0 mi SW 17.3 mph - N/A   Scattered Clouds
9:53 PM 37.0 °F 27.0 °F 23.0 °F 57% 29.83 in 10.0 mi SW 18.4 mph 26.5 mph N/A   Overcast
10:53 PM 36.0 °F 26.7 °F 25.0 °F 64% 29.84 in 10.0 mi SW 15.0 mph - N/A   Overcast
11:53 PM 37.0 °F 28.1 °F 27.0 °F 67% 29.84 in 10.0 mi SW 15.0 mph - N/A   Overcast